Location: LDNL
(36.4545°S, 141.6685°E)
Time: 03:08:55
(UTC+10:00)

Courier 1B Rocket - Pass Details

Date: 27 May 2024
Orbit: 920 x 1201 km, 28.3° (Epoch: 14 June)

Event Time Altitude Azimuth Distance (km) Brightness Sun altitude
Exits shadow 03:20:39 16° 70° (ENE) 2,653 7.6 -50.2°
Drops below altitude 10° 03:22:11 10° 75° (ENE) 3,124 8.0 -49.9°
Sets 03:25:13 0° 80° (E) 4,101 8.9 -49.3°
